Hourly Weather Otorowo

Today, 6 May, Thursday

Time Temperature Precipitation Wind Pressure Humidity
00:00 +4°C° 0 mm 8 mps 748 mmHg 74%
01:00 +3°C° 0 mm 9 mps 748 mmHg 74%
02:00 +3°C° 0 mm 9 mps 748 mmHg 72%
03:00 +3°C° 0 mm 9 mps 749 mmHg 71%
04:00 +2°C° 0 mm 9 mps 749 mmHg 70%
05:00 +2°C° 0 mm 8 mps 749 mmHg 69%
06:00 +4°C° 0 mm 8 mps 750 mmHg 69%
07:00 +4°C° 0 mm 8 mps 750 mmHg 68%
08:00 +5°C° 0 mm 8 mps 750 mmHg 61%
09:00 +6°C° 0 mm 9 mps 750 mmHg 54%
10:00 +7°C° 0 mm 9 mps 750 mmHg 47%
11:00 +8°C° 0 mm 9 mps 750 mmHg 44%
12:00 +10°C° 0 mm 8 mps 751 mmHg 42%
13:00 +11°C° 0 mm 8 mps 751 mmHg 40%
14:00 +10°C° 0.3 mm 7 mps 750 mmHg 47%
15:00 +10°C° 0.3 mm 7 mps 750 mmHg 55%
16:00 +9°C° 0.3 mm 6 mps 750 mmHg 62%
17:00 +8°C° 0.2 mm 5 mps 750 mmHg 69%
18:00 +7°C° 0.2 mm 4 mps 750 mmHg 76%
19:00 +6°C° 0.2 mm 4 mps 750 mmHg 83%
20:00 +5°C° 0 mm 3 mps 750 mmHg 84%
21:00 +4°C° 0 mm 3 mps 751 mmHg 85%
22:00 +4°C° 0 mm 2 mps 751 mmHg 86%
23:00 +4°C° 0 mm 2 mps 751 mmHg 86%

Tomorrow, 7 May, Friday

Time Temperature Precipitation Wind Pressure Humidity
00:00 +4°C° 0 mm 2 mps 751 mmHg 85%
01:00 +4°C° 0 mm 2 mps 750 mmHg 84%
02:00 +4°C° 0 mm 2 mps 750 mmHg 85%
03:00 +4°C° 0 mm 2 mps 750 mmHg 85%
04:00 +5°C° 0 mm 1 mps 749 mmHg 85%
05:00 +6°C° 0 mm 1 mps 749 mmHg 83%
06:00 +7°C° 0 mm 1 mps 749 mmHg 81%
07:00 +8°C° 0 mm 1 mps 749 mmHg 78%
08:00 +8°C° 0.2 mm 1 mps 749 mmHg 75%
09:00 +8°C° 0.2 mm 1 mps 749 mmHg 73%
10:00 +8°C° 0.2 mm 2 mps 749 mmHg 70%
11:00 +8°C° 0.5 mm 2 mps 750 mmHg 74%
12:00 +7°C° 0.5 mm 3 mps 750 mmHg 79%
13:00 +6°C° 0.5 mm 4 mps 750 mmHg 83%
14:00 +6°C° 0.6 mm 4 mps 751 mmHg 81%
15:00 +6°C° 0.6 mm 4 mps 751 mmHg 78%
16:00 +6°C° 0.6 mm 4 mps 752 mmHg 76%
17:00 +6°C° 0.1 mm 4 mps 752 mmHg 78%
18:00 +5°C° 0.1 mm 5 mps 753 mmHg 80%
19:00 +4°C° 0.1 mm 6 mps 753 mmHg 83%
20:00 +3°C° 0 mm 5 mps 754 mmHg 86%
21:00 +3°C° 0 mm 5 mps 754 mmHg 89%
22:00 +3°C° 0 mm 4 mps 755 mmHg 92%
23:00 +3°C° 0 mm 4 mps 756 mmHg 94%

Day after tomorrow, 8 May, Saturday

Time Temperature Precipitation Wind Pressure Humidity
00:00 +1°C° 0 mm 4 mps 756 mmHg 95%
01:00 +1°C° 0 mm 4 mps 756 mmHg 96%
02:00 +1°C° 0 mm 4 mps 757 mmHg 96%
03:00 0°C° 0 mm 4 mps 757 mmHg 96%
04:00 +1°C° 0 mm 3 mps 758 mmHg 96%
05:00 +1°C° 0 mm 4 mps 758 mmHg 92%
06:00 +3°C° 0 mm 4 mps 758 mmHg 87%
07:00 +5°C° 0 mm 5 mps 759 mmHg 83%
08:00 +6°C° 0 mm 5 mps 759 mmHg 76%
09:00 +7°C° 0 mm 6 mps 759 mmHg 70%
10:00 +8°C° 0 mm 6 mps 759 mmHg 63%
11:00 +8°C° 0.1 mm 6 mps 759 mmHg 64%
12:00 +8°C° 0.1 mm 6 mps 760 mmHg 64%
13:00 +8°C° 0.1 mm 6 mps 760 mmHg 65%
14:00 +8°C° 0 mm 5 mps 760 mmHg 64%
15:00 +8°C° 0 mm 4 mps 760 mmHg 63%
16:00 +8°C° 0 mm 4 mps 760 mmHg 62%
17:00 +9°C° 0 mm 3 mps 760 mmHg 64%
18:00 +8°C° 0 mm 2 mps 760 mmHg 66%
19:00 +8°C° 0 mm 1 mps 760 mmHg 69%
20:00 +7°C° 0 mm 2 mps 760 mmHg 72%
21:00 +6°C° 0 mm 2 mps 761 mmHg 75%
22:00 +5°C° 0 mm 2 mps 761 mmHg 78%
23:00 +4°C° 0 mm 3 mps 761 mmHg 79%

9 May, Sunday

Time Temperature Precipitation Wind Pressure Humidity
00:00 +3°C° 0 mm 3 mps 761 mmHg 80%
01:00 +3°C° 0 mm 3 mps 761 mmHg 81%
02:00 +3°C° 0 mm 3 mps 760 mmHg 80%
03:00 +3°C° 0 mm 3 mps 760 mmHg 79%
04:00 +3°C° 0 mm 4 mps 760 mmHg 78%
05:00 +5°C° 0 mm 4 mps 760 mmHg 75%
06:00 +7°C° 0 mm 5 mps 759 mmHg 71%
07:00 +8°C° 0 mm 5 mps 759 mmHg 68%
08:00 +10°C° 0 mm 5 mps 759 mmHg 65%
09:00 +13°C° 0 mm 6 mps 759 mmHg 62%
10:00 +15°C° 0 mm 6 mps 758 mmHg 59%
11:00 +16°C° 0 mm 6 mps 758 mmHg 56%
12:00 +17°C° 0 mm 6 mps 758 mmHg 53%
13:00 +19°C° 0 mm 6 mps 758 mmHg 51%
14:00 +19°C° 0 mm 6 mps 758 mmHg 53%
15:00 +20°C° 0 mm 5 mps 757 mmHg 56%
16:00 +20°C° 0 mm 5 mps 757 mmHg 59%
17:00 +17°C° 0 mm 5 mps 757 mmHg 66%
18:00 +17°C° 0 mm 4 mps 757 mmHg 73%
19:00 +15°C° 0 mm 4 mps 757 mmHg 80%
20:00 +14°C° 0 mm 4 mps 757 mmHg 80%
21:00 +13°C° 0 mm 4 mps 757 mmHg 80%
22:00 +12°C° 0 mm 4 mps 757 mmHg 81%
23:00 +11°C° 0 mm 4 mps 757 mmHg 80%

10 May, Monday

Time Temperature Precipitation Wind Pressure Humidity
00:00 +10°C° 0 mm 4 mps 758 mmHg 78%
01:00 +10°C° 0 mm 4 mps 758 mmHg 77%
02:00 +10°C° 0 mm 4 mps 757 mmHg 77%
03:00 +8°C° 0 mm 4 mps 757 mmHg 77%
04:00 +8°C° 0 mm 4 mps 757 mmHg 76%
05:00 +10°C° 0 mm 5 mps 757 mmHg 74%
06:00 +12°C° 0 mm 5 mps 757 mmHg 72%
07:00 +14°C° 0 mm 5 mps 757 mmHg 69%
08:00 +15°C° 0 mm 5 mps 757 mmHg 64%
09:00 +17°C° 0 mm 6 mps 757 mmHg 59%
10:00 +20°C° 0 mm 6 mps 757 mmHg 54%
11:00 +21°C° 0 mm 7 mps 756 mmHg 54%
12:00 +22°C° 0 mm 7 mps 756 mmHg 53%
13:00 +23°C° 0 mm 7 mps 756 mmHg 52%
14:00 +23°C° 0 mm 7 mps 756 mmHg 54%
15:00 +23°C° 0 mm 6 mps 756 mmHg 56%
16:00 +23°C° 0 mm 6 mps 756 mmHg 59%
17:00 +22°C° 0 mm 5 mps 756 mmHg 66%
18:00 +20°C° 0 mm 4 mps 756 mmHg 73%
19:00 +19°C° 0 mm 3 mps 756 mmHg 81%
20:00 +17°C° 0 mm 3 mps 756 mmHg 84%
21:00 +16°C° 0 mm 3 mps 756 mmHg 88%
22:00 +14°C° 0 mm 3 mps 756 mmHg 91%
23:00 +14°C° 0 mm 3 mps 756 mmHg 91%

11 May, Tuesday

Time Temperature Precipitation Wind Pressure Humidity
00:00 +13°C° 0 mm 3 mps 756 mmHg 92%
01:00 +13°C° 0 mm 4 mps 756 mmHg 92%
02:00 +13°C° 0 mm 4 mps 755 mmHg 92%
03:00 +13°C° 0 mm 4 mps 755 mmHg 93%
04:00 +12°C° 0 mm 4 mps 755 mmHg 93%
05:00 +13°C° 0 mm 5 mps 755 mmHg 88%
06:00 +15°C° 0 mm 5 mps 755 mmHg 83%
07:00 +16°C° 0 mm 6 mps 755 mmHg 77%
08:00 +19°C° 0 mm 6 mps 755 mmHg 72%
09:00 +20°C° 0 mm 6 mps 755 mmHg 67%
10:00 +22°C° 0 mm 6 mps 754 mmHg 62%
11:00 +23°C° 0 mm 7 mps 754 mmHg 59%
12:00 +24°C° 0 mm 7 mps 754 mmHg 57%
13:00 +26°C° 0 mm 7 mps 754 mmHg 54%
14:00 +26°C° 0 mm 7 mps 754 mmHg 56%
15:00 +27°C° 0 mm 6 mps 754 mmHg 58%
16:00 +27°C° 0 mm 6 mps 754 mmHg 60%
17:00 +25°C° 0 mm 5 mps 754 mmHg 66%
18:00 +23°C° 0 mm 4 mps 754 mmHg 73%
19:00 +21°C° 0 mm 3 mps 754 mmHg 79%
20:00 +20°C° 0 mm 4 mps 754 mmHg 82%
21:00 +19°C° 0 mm 4 mps 754 mmHg 85%
22:00 +18°C° 0 mm 4 mps 754 mmHg 88%
23:00 +17°C° 0 mm 4 mps 755 mmHg 87%
Show more

We Need Your Consent

Meteoprog and our Service Providers may store and access personal data such as cookies, device identifiers or other similar technologies on your device and process such data to personalise content and ads, as well as provide social media features and to analyse the traffic.

  • Store and/or access information on your device

    Cookies, device identifiers or other information can be stored or accessed on your device for the purposes indicated above.

  • Personalised ads and content, ad and content measurement, audience insights, and products development

    Ads and content can be personalised based on a profile. More data can be added to better personalise ads and content. Ad and content performance can be measured. Insights about the audience who saw the ads and content can be derived. Such data can be used to develop or improve user’s experience, systems and software.

By clicking ‘I Agree’ you will allow the use of indicated cookies, device identifiers, web beacons or other similar technologies. Your settings can be changed in the browser on your device.

For certain purposes, legitimate interests may be relied on, rather than consent. You can read more about this in our Privacy and Cookie Policy.